Regional Weather Roundup
Issued by NWS Glasgow, MT

Home | Current Version | Previous Version | Text Only | Print | Product List | Glossary On
Versions: 1 2 3 4 5 6 7 8 9 10 11 12 13 14 15 16 17 18 19 20 21 22 23 24 25 26 27 28 29 30 31 32 33 34 35 36 37 38 39 40 41 42 43 44 45 46 47 48 49 50
000
ASUS45 KGGW 251215
RWRGGW
HOURLY WEATHER ROUNDUP FOR NORTHEAST MONTANA
NATIONAL WEATHER SERVICE GLASGOW MONTANA
500 AM MST SUN JAN 25 2015

NOTE: "FAIR" INDICATES FEW OR NO CLOUDS BELOW 12,000 FEET WITH NO
SIGNIFICANT WEATHER AND/OR OBSTRUCTIONS TO VISISBILITY.

NORTHEAST MONTANA


CITY           SKY/WX    TMP DP  RH WIND       PRES   REMARKS
GLASGOW        PTCLDY    30  24  78 W6        30.01F
6HR MIN TEMP:  29; 6HR MAX TEMP:  33;

PLENTYWOOD       N/A     34  30  86 N12G21      N/A
WOLF POINT     CLOUDY    31  27  85 W8        30.03R
JORDAN           N/A     30  28  92 W3        30.03F
WINNETT          N/A     33  30  88 SW2         N/A
SIDNEY         CLOUDY    34  28  80 NW6       30.03S
GLENDIVE       CLOUDY    30  27  86 W12       30.03S
MALTA            N/A     30  28  92 SW2         N/A
SCOBEY           N/A     24  17  74 CALM      29.96F

FORT PECK REPORTS


CITY           SKY/WX    TMP DP  RH WIND       PRES   REMARKS
FORT PECK        N/A     32  29  88 S5          N/A
THE PINES        N/A     32  24  72 W5          N/A

SOUTHEAST MONTANA


CITY           SKY/WX    TMP DP  RH WIND       PRES   REMARKS
BILLINGS       CLOUDY    40  31  70 SW10      30.05F
MILES CITY     MOCLDY    30  25  81 W9        30.05S
BAKER          CLEAR     27  23  85 W10       30.03F
LIVINGSTON     MOCLDY    45  29  53 W28G38    30.13F

CENTRAL MONTANA


CITY           SKY/WX    TMP DP  RH WIND       PRES   REMARKS
HAVRE          PTCLDY    29  26  89 E3        29.94F
LEWISTOWN      CLEAR     39  32  76 SW16      30.00F
GREAT FALLS    CLOUDY    48  38  68 SW18      29.98F
CUT BANK       CLOUDY    48  36  63 W26G33    29.95R
HELENA         CLOUDY    46  37  71 CALM      30.13F
BUTTE          MOCLDY    33  31  92 CALM      30.25R
BOZEMAN        MOCLDY    34  31  88 SE3       30.19F

WESTERN MONTANA


CITY           SKY/WX    TMP DP  RH WIND       PRES   REMARKS
MISSOULA       FOG       32  32 100 CALM      30.24F VSB 1/2
KALISPELL      NOT AVBL

NORTH DAKOTA


CITY           SKY/WX    TMP DP  RH WIND       PRES   REMARKS
WILLISTON      CLOUDY    34  29  82 N16       29.99S
DICKINSON      CLOUDY    34  28  79 NW12      29.96S
MINOT          CLOUDY    23  21  92 NE3       29.95S FOG
BISMARCK       CLOUDY    37  32  82 NW10      29.95R

SOUTHERN SASKATCHEWAN


CITY           SKY/WX    TMP DP  RH WIND       PRES   REMARKS
REGINA         FOG       23  23 100 S5        29.95F VSB 1/4
ESTEVAN        FLURRIES  27  27 100 W13       29.97
SWIFT CURRENT  CLOUDY    32  27  80 S12       29.88F




USA.gov is the U.S. government's official web portal to all federal, state and local government web resources and services.